User: anonymous   Login
Location: Unspecified
(0.0000°N, 0.0000°E)
Time: 20:04:51
(UTC+00:00)
Language:

SAR-Lupe-2 - Orbit

View from above orbital plane
View from above orbital plane
View from above satellite
View from above satellite

Ground track
Ground track

The orbit data is extracted from the following two-line orbital elements,

1 31797U 07030A   21134.92873570 0.00000000  00000-0  00000-0 0    02
2 31797  98.1196  38.8598 0001561 176.8801 183.1197 15.27577890    09
Epoch (UTC): 14 May 2021 22:17:22
Eccentricity: 0.0001561
inclination: 98.1196°
perigee height: 482 km
apogee height: 484 km
right ascension of ascending node: 38.8598°
argument of perigee: 176.8801°
revolutions per day: 15.27577890
mean anomaly at epoch: 183.1197°
orbit number at epoch: 0

The dashed part of the orbit path shows where the satellite is in the earth's shadow,  

DLR